Location: Corralito
(10.2667°N, 66.9500°W)
Time: 00:11:34
(UTC+00:00)

Cosmos 1190 Rocket - Pass Details

Date: 11 December 2023
Orbit: 756 x 777 km, 74.1° (Epoch: 26 February)

Event Time Altitude Azimuth Distance (km) Brightness Sun altitude
Rises 22:27:49 0° 349° (N) 3,234 7.1 -5.5°
Reaches altitude 10° 22:30:12 10° 350° (N) 2,305 6.4 -6.1°
Maximum altitude 22:35:26 80° 78° (ENE) 779 4.0 -7.3°
Drops below altitude 10° 22:40:38 10° 164° (SSE) 2,291 6.6 -8.4°
Sets 22:43:00 0° 165° (SSE) 3,214 7.3 -9.0°
